Wind_Speed
33 34 34 34 33 32 31 29 28 27 25 24 23 21 20 19 20 19 18 18 17 16 16 16 17 17 18 18 19 20 21 23 24 24 26 29 31 31 29 27 24 22 19 18 16 15 13 12 11 9 7 7 6 6 6 5 6 6 4 6 6 7 6 5 7 5 0 1 5 6 5 2 1 1 3 5 7 9 9 10 13 13 14 15 12 9 6 6
35 34 35 35 35 35 33 32 31 29 28 26 25 23 21 20 20 20 19 19 18 16 16 15 15 15 16 16 17 18 19 22 24 30 34 34 34 33 30 28 26 24 21 19 17 15 12 10 11 9 7 7 6 6 6 6 7 7 5 5 7 8 4 3 7 7 4 3 3 5 5 3 3 1 2 5 7 7 9 9 11 13 15 17 17 15 12 8
36 36 35 34 34 35 35 35 33 31 30 28 27 25 23 22 21 21 20 19 18 15 15 15 14 14 13 15 15 16 17 18 24 35 38 36 36 35 32 29 26 25 23 21 19 17 15 12 11 9 7 8 6 5 6 6 8 8 6 6 8 8 4 4 8 9 8 7 4 4 4 5 5 3 3 6 8 8 10 10 9 12 16 19 19 19 17 13
38 37 36 35 33 35 36 36 35 34 33 31 29 27 25 23 22 22 20 19 18 15 14 14 14 13 12 13 13 14 12 14 21 30 34 33 35 36 34 32 28 25 23 22 21 18 16 14 14 10 8 9 7 7 7 8 7 6 7 9 8 4 5 9 11 10 10 10 8 4 4 6 5 5 6 6 8 9 10 10 10 12 12 15 19 20 20 18
39 39 38 37 34 34 36 37 37 36 35 33 31 29 27 25 23 22 20 19 19 17 15 14 14 12 12 12 12 10 7 7 9 13 16 19 26 32 34 34 29 26 24 23 21 19 15 13 13 11 10 10 7 7 9 11 8 5 7 12 10 4 7 11 10 12 12 11 8 4 5 7 5 6 9 9 9 8 7 7 11 12 10 12 16 18 21 22
39 39 39 39 36 35 35 36 37 37 36 35 33 30 29 27 25 23 21 19 19 18 17 16 14 12 12 12 11 10 10 6 2 2 1 5 13 22 28 32 30 27 25 24 21 18 15 13 13 13 11 10 10 9 9 11 11 8 9 11 12 10 11 10 5 11 14 11 9 7 7 6 6 7 8 12 15 13 12 13 13 12 11 11 12 15 19 22
40 40 40 39 39 36 35 36 36 37 38 37 35 33 31 29 27 25 23 20 19 20 18 17 15 14 13 12 12 14 19 18 4 6 7 8 4 12 21 25 28 29 26 25 24 21 15 15 16 15 12 10 10 12 10 9 12 11 9 9 12 12 14 13 6 10 12 11 11 8 7 8 9 8 6 12 18 18 18 18 16 15 14 13 13 14 18 20
41 41 40 40 40 39 37 36 35 36 39 39 36 34 32 31 28 27 25 22 20 20 20 19 16 16 14 14 16 16 24 31 19 7 5 10 11 3 16 22 25 28 27 25 23 23 19 17 18 14 12 11 9 11 11 9 11 14 11 10 11 11 15 17 10 11 12 11 11 8 9 13 13 9 9 16 20 21 22 20 20 19 18 17 16 16 17 20
41 41 41 41 41 40 39 38 36 36 38 39 37 36 34 32 30 28 26 24 22 20 21 20 18 18 16 16 17 16 24 32 28 19 9 2 6 6 7 17 23 25 24 23 20 21 20 18 19 15 12 11 10 11 13 11 10 13 16 15 14 14 17 16 11 13 13 11 11 9 13 19 15 10 14 21 24 23 22 22 23 23 24 23 21 20 19 20
40 41 42 42 41 41 40 40 39 37 37 38 38 37 35 34 32 30 28 26 23 21 21 22 20 20 19 20 18 14 19 23 25 28 24 19 12 6 3 8 17 23 22 21 19 20 21 17 17 18 15 10 10 11 13 13 7 7 14 17 17 19 19 15 9 11 12 12 13 12 16 19 11 7 12 13 13 13 14 17 19 20 22 22 22 22 21 21
40 40 41 42 42 42 41 41 40 39 37 37 39 39 36 35 33 31 30 27 25 22 22 24 22 22 22 23 22 16 15 14 13 19 27 29 26 21 14 8 9 17 21 21 20 19 21 18 16 18 13 7 9 9 11 14 9 6 9 11 15 18 19 16 10 9 9 9 12 12 16 19 7 7 17 14 11 14 15 17 18 18 19 19 19 20 22 23
39 40 40 41 43 42 41 41 40 40 39 37 37 38 38 37 35 33 31 28 26 23 23 25 24 24 23 24 30 25 19 15 5 4 16 26 28 28 25 19 13 13 15 19 21 19 21 21 18 17 10 4 6 4 7 14 11 7 7 9 13 14 17 19 15 11 11 7 7 6 12 17 10 13 26 23 19 24 23 22 24 24 24 23 22 21 22 23
39 40 39 39 41 42 42 41 41 39 39 39 37 38 40 39 37 35 32 29 28 25 24 26 25 26 25 26 33 33 28 23 13 5 8 15 21 24 25 25 21 18 15 15 16 17 20 21 20 18 12 7 5 2 3 7 8 6 8 10 10 11 14 19 17 12 11 10 8 6 9 14 11 19 30 25 23 25 23 23 25 27 28 27 26 25 24 23
40 41 40 39 39 41 42 42 42 40 39 39 38 37 39 39 38 36 34 31 28 26 25 25 26 28 29 29 31 33 34 29 24 16 9 10 13 15 18 21 21 19 17 15 14 14 18 22 21 16 13 10 5 3 2 2 5 6 7 8 8 11 9 11 15 13 11 11 14 11 11 13 10 14 19 18 20 22 20 24 24 25 28 28 27 27 27 26
41 41 42 41 40 41 41 41 42 41 39 39 39 37 38 40 40 39 35 32 30 28 27 26 28 26 24 29 30 31 33 31 32 27 16 11 12 13 14 16 18 16 15 16 15 13 17 22 22 15 11 10 5 4 5 3 4 6 7 8 9 10 6 6 12 16 13 9 16 15 10 9 10 14 15 13 16 18 19 23 22 22 26 29 29 28 29 28
40 41 43 42 41 41 41 41 41 41 40 38 39 38 38 40 41 40 37 36 33 29 28 28 30 26 17 19 25 28 31 33 35 33 24 17 14 15 14 13 15 16 15 15 15 13 18 23 22 15 10 9 9 7 7 7 7 8 10 11 9 11 9 5 7 14 16 8 14 18 11 7 5 11 16 15 17 18 19 23 23 22 24 29 29 30 31 30
41 41 43 43 42 42 41 42 41 41 40 38 39 37 38 39 41 41 38 36 32 30 33 31 32 29 17 14 19 25 32 34 34 33 30 24 19 15 13 13 15 17 16 15 15 14 18 20 16 11 8 9 11 9 9 12 12 10 10 11 12 13 12 8 4 8 15 10 10 15 15 14 8 7 10 11 15 18 19 23 26 24 23 27 29 29 31 32
43 42 44 44 44 43 42 42 42 41 40 38 38 37 36 36 38 40 39 37 32 30 30 28 28 20 16 24 22 19 27 32 30 31 31 28 26 19 12 13 16 17 17 14 14 14 14 13 9 7 7 10 13 13 14 13 10 11 13 11 11 13 13 11 5 5 11 9 10 14 14 17 15 13 14 14 14 17 20 23 26 23 19 22 28 31 32 32
43 43 43 44 45 45 44 43 43 41 39 38 37 36 34 34 37 40 42 40 34 25 19 26 31 15 7 22 26 19 22 27 24 26 29 27 27 25 17 12 15 19 18 11 11 14 12 7 6 8 9 13 16 19 21 12 4 10 15 11 10 11 10 9 7 5 10 9 12 16 16 16 16 15 18 20 18 17 19 21 22 20 18 19 24 30 33 34
44 44 44 44 46 47 46 45 44 43 40 38 38 35 33 32 24 23 37 45 43 37 27 35 47 28 3 8 25 25 17 16 20 22 25 26 26 28 22 13 12 16 14 10 11 14 13 8 7 10 12 18 21 22 24 18 9 9 9 10 12 12 10 8 9 7 8 10 14 16 18 18 18 15 18 23 24 19 18 20 21 21 21 22 23 29 33 34
45 44 45 45 46 48 48 47 46 45 42 40 42 39 36 36 20 14 33 39 44 47 30 30 48 37 7 2 19 28 18 12 17 21 22 25 28 25 21 16 10 7 12 14 11 11 12 10 11 15 17 19 20 22 23 22 19 14 10 10 11 12 11 8 9 8 7 8 14 16 17 19 18 16 16 20 23 21 19 20 23 24 25 25 27 32 34 32
47 46 46 47 48 49 49 50 48 46 44 42 45 44 43 44 35 30 35 24 33 49 33 25 40 37 18 7 12 23 22 14 14 20 21 25 29 22 16 17 12 6 11 14 9 9 11 11 15 20 18 16 18 20 21 22 20 16 14 12 11 10 9 6 7 8 7 6 12 15 17 17 16 17 17 19 21 24 23 22 25 26 25 26 27 32 37 37
50 49 49 48 49 50 51 52 49 47 48 46 48 49 49 49 40 36 33 15 18 44 40 26 33 40 31 17 12 21 22 15 15 22 25 27 29 25 18 15 14 12 11 11 11 12 10 12 21 23 16 17 19 18 18 17 16 16 15 14 14 11 8 6 7 9 8 8 11 11 12 15 15 16 17 20 24 27 26 26 30 32 30 30 31 33 37 39
54 52 51 50 50 51 52 52 49 49 50 48 51 52 50 49 42 37 28 7 1 29 41 31 28 38 35 20 15 19 19 16 17 22 28 30 27 23 19 15 15 14 14 15 16 16 13 13 20 21 18 20 20 16 16 14 13 17 18 17 16 14 12 9 5 6 8 10 10 8 10 13 14 16 16 17 21 25 29 28 30 35 36 38 40 40 40 40
59 58 55 53 52 52 53 52 51 52 50 51 54 51 50 49 46 43 28 5 1 17 30 29 23 29 34 25 17 17 16 14 17 23 29 32 28 19 16 16 14 13 17 18 16 14 15 15 15 16 19 22 19 15 16 14 11 14 18 21 21 18 15 11 6 4 7 10 9 8 11 12 11 16 17 13 15 20 25 26 29 34 35 36 39 44 46 46
62 62 59 57 54 53 52 51 54 54 51 54 55 49 52 49 42 43 26 2 4 11 18 26 21 23 32 28 20 19 13 10 16 25 29 31 31 21 13 14 11 13 17 15 11 6 6 12 14 15 18 21 20 17 17 15 11 11 13 18 21 19 18 16 11 8 10 10 3 5 11 13 10 13 15 13 15 18 19 20 27 32 31 29 32 39 45 48
63 64 63 60 58 56 55 54 56 56 53 55 54 49 53 51 43 41 22 3 5 11 15 21 19 22 29 27 26 20 7 11 17 22 29 32 30 22 13 13 11 11 12 9 8 5 5 10 14 16 17 17 17 16 16 17 14 8 4 10 16 20 22 18 12 11 11 6 1 5 8 12 13 12 13 14 15 18 19 19 22 25 27 27 26 29 38 46
63 65 65 63 62 61 62 58 53 55 57 54 53 52 49 49 46 34 14 5 6 13 13 16 17 22 25 26 32 20 5 15 17 15 29 33 28 21 12 13 14 11 12 11 8 8 11 15 14 16 16 12 13 14 14 16 15 6 7 11 14 16 17 12 10 12 8 5 8 9 5 8 15 13 11 16 18 21 22 21 20 20 22 24 25 28 35 41
62 64 65 64 62 63 65 61 53 55 58 52 50 49 44 47 42 20 6 5 5 6 12 20 17 18 24 24 29 24 11 12 10 13 27 30 27 19 9 12 16 12 14 13 10 9 10 10 12 15 13 10 12 13 13 16 15 6 9 9 11 11 12 10 11 11 7 7 12 11 10 10 15 14 10 13 17 18 18 16 17 20 23 26 31 35 37 39
58 61 64 64 63 65 65 62 58 56 56 52 47 46 46 43 28 9 8 6 4 2 12 21 18 20 26 21 19 25 17 7 8 15 20 20 22 17 8 9 10 7 10 11 11 13 8 2 4 9 11 12 13 12 16 20 14 8 8 9 10 8 9 9 9 8 8 11 11 15 19 15 14 15 10 12 16 14 12 12 13 17 21 26 32 38 39 40
56 59 63 64 66 68 64 62 61 54 53 52 47 51 45 26 12 7 8 5 4 4 10 16 17 20 25 18 13 22 19 8 11 16 13 11 12 10 8 7 5 4 6 7 8 12 12 7 3 3 6 10 13 12 14 16 12 9 8 9 6 4 6 6 7 8 9 10 10 17 23 19 17 16 6 6 12 12 12 16 15 15 17 20 26 34 37 39
55 59 62 66 69 69 67 67 63 53 51 53 54 55 34 9 8 7 6 7 4 7 11 15 17 19 25 22 14 18 19 11 12 15 13 10 8 8 10 9 8 8 8 8 9 10 12 11 8 5 4 6 12 11 8 7 7 10 10 10 8 5 6 7 8 9 9 8 10 15 18 17 17 20 16 11 9 5 6 8 8 11 14 14 20 29 32 34
53 57 60 66 68 68 68 66 62 55 52 56 55 40 15 6 9 7 8 8 5 8 13 16 21 23 26 23 14 16 16 8 10 15 14 12 9 10 12 11 11 9 6 9 11 9 8 10 12 10 5 9 14 10 8 7 8 12 10 10 11 7 7 10 9 8 7 8 10 11 12 11 10 17 23 21 19 18 19 17 13 15 18 16 20 26 30 31
50 53 57 62 65 66 64 61 59 54 56 61 44 18 7 9 8 10 10 6 4 11 15 16 20 22 22 18 14 17 13 8 12 15 13 12 10 10 11 11 13 8 3 7 9 9 10 9 12 13 9 13 16 14 12 8 9 13 10 9 11 8 8 10 9 11 8 4 6 10 9 8 9 11 8 7 12 19 28 31 28 30 31 28 26 25 27 30
45 49 54 58 60 61 60 59 58 56 62 56 25 6 10 10 8 11 10 5 7 12 15 17 20 18 16 13 13 14 9 8 14 13 10 12 10 11 12 11 13 10 6 8 6 8 12 8 8 16 15 14 16 16 13 8 7 9 7 8 10 8 9 10 8 8 5 3 5 9 7 5 9 14 8 3 4 6 14 22 25 28 30 33 35 34 33 33
44 48 53 56 59 61 59 58 57 60 64 41 9 7 12 5 5 11 9 7 10 16 19 16 15 14 13 10 12 16 9 7 15 11 8 11 10 11 13 12 14 12 9 10 5 5 11 8 6 14 15 16 17 17 15 11 5 4 8 10 5 1 4 9 9 3 2 7 6 7 8 6 7 14 14 15 12 7 9 12 14 18 22 27 34 40 43 42
45 49 53 56 59 60 60 59 57 63 60 27 4 7 8 2 4 8 8 9 15 22 19 12 11 12 13 11 12 19 14 9 14 12 8 10 10 12 15 13 16 17 14 13 7 3 7 8 7 11 14 18 20 19 18 17 11 4 6 9 3 1 1 3 6 4 5 8 4 7 12 10 8 8 8 15 19 15 13 11 11 15 18 21 27 37 43 42
46 49 49 53 56 59 60 58 60 63 45 16 5 7 5 4 7 8 11 13 19 22 13 7 11 11 14 15 13 19 18 11 13 13 10 9 8 14 18 13 15 21 20 17 8 1 3 7 5 9 13 14 15 14 13 18 21 10 3 7 5 2 4 3 4 4 7 7 4 8 12 11 12 9 6 10 16 15 13 13 13 13 13 16 23 34 38 37
47 40 35 46 55 57 58 57 63 55 25 7 10 9 4 3 5 11 18 17 16 17 11 7 10 9 14 17 15 19 20 15 16 13 10 9 6 13 19 12 12 19 21 17 8 0 2 6 4 5 7 7 8 9 7 11 16 8 1 5 4 1 3 5 3 2 4 7 6 7 9 8 10 12 14 14 12 9 8 11 13 13 15 17 24 34 37 38
45 24 19 44 55 54 60 60 53 35 11 6 10 7 5 4 4 15 26 22 10 6 9 10 10 10 13 15 15 17 16 15 17 12 9 10 6 8 16 14 12 16 20 18 9 2 2 4 5 2 2 4 5 7 9 12 13 8 5 7 6 3 2 3 4 2 2 5 6 6 7 6 6 10 15 16 13 9 9 10 10 13 19 21 26 35 38 38
40 12 13 47 55 56 64 49 25 12 6 8 6 4 8 6 7 17 25 22 7 3 5 11 11 11 12 14 15 16 14 13 15 12 9 13 10 7 12 15 13 14 16 14 9 7 5 4 7 4 2 5 5 3 7 11 11 9 10 11 10 8 7 8 9 6 3 3 4 4 4 3 2 4 8 11 13 11 9 9 9 11 17 22 27 33 35 36
30 5 20 54 58 61 56 23 5 8 8 8 6 7 12 9 10 17 18 15 6 3 4 8 9 10 9 10 13 14 14 13 16 14 11 14 14 8 9 14 16 18 15 11 9 7 4 3 7 7 5 5 2 1 3 4 3 3 4 7 10 11 10 11 11 6 5 6 4 5 6 4 2 3 4 6 6 4 3 4 6 9 14 20 26 31 31 33
19 7 32 59 62 65 44 8 5 11 4 8 12 11 13 11 11 13 12 11 6 3 6 5 6 9 6 7 10 13 12 11 15 14 11 14 11 7 12 18 20 19 13 9 8 5 3 4 8 8 6 3 1 1 0 1 2 2 2 1 4 6 5 5 5 2 2 5 6 6 7 6 5 5 6 5 3 5 5 3 4 8 11 15 21 24 26 28
19 20 39 57 65 64 33 4 9 10 2 9 12 9 10 8 9 13 12 8 4 6 8 4 4 5 4 7 11 13 13 9 12 12 9 12 8 5 16 24 22 17 11 9 11 10 7 6 7 8 6 5 5 4 4 4 4 5 5 4 5 6 4 1 2 2 4 6 8 9 7 3 3 4 6 5 2 2 2 2 3 6 9 14 19 22 24 26
19 18 32 51 64 54 22 7 13 10 7 12 11 12 13 5 3 9 10 4 2 4 7 5 5 6 6 9 11 13 12 4 6 10 7 8 5 2 12 23 22 14 8 11 17 14 8 5 7 10 9 8 10 7 5 5 5 5 5 7 9 11 11 6 2 4 6 3 6 8 5 4 10 14 12 8 3 2 2 2 4 8 12 18 21 24 27 28
11 6 12 27 36 26 10 14 18 11 11 15 10 12 16 9 3 5 7 3 3 6 7 4 7 9 9 13 12 12 10 2 2 9 8 7 5 1 10 20 19 12 9 15 21 15 5 5 9 12 12 12 8 3 1 1 4 5 7 11 11 11 13 9 5 6 7 5 7 9 6 7 15 20 20 14 8 7 6 3 6 12 19 24 24 26 30 31
8 4 4 7 9 7 6 12 14 9 13 15 9 10 14 13 9 4 3 1 3 8 6 3 6 10 11 15 13 11 10 4 3 10 11 9 5 3 7 11 12 13 12 15 19 12 2 7 12 13 15 14 5 3 1 2 3 3 3 7 8 8 10 10 9 9 7 5 9 11 8 8 13 20 24 18 10 9 8 6 11 17 21 27 31 33 35 35
4 4 6 8 6 4 7 10 11 11 14 11 7 11 16 15 14 8 3 2 5 7 5 2 7 12 15 15 12 12 12 6 4 9 10 9 7 6 7 4 5 12 12 11 13 8 3 8 11 11 16 16 5 5 2 1 1 1 1 3 4 5 8 9 11 12 10 8 10 11 11 11 13 19 25 19 9 9 13 15 20 22 22 27 33 35 37 38
6 8 7 8 6 7 12 15 16 15 14 10 6 11 17 17 16 9 3 5 8 5 4 6 10 13 17 15 11 14 14 8 7 8 7 9 9 8 8 4 5 11 12 9 8 5 4 7 7 9 14 15 9 6 5 4 5 6 7 7 6 7 9 10 12 14 13 12 12 14 16 15 13 17 24 23 15 14 17 20 21 22 21 23 27 30 34 35
11 12 10 8 7 8 13 15 16 15 12 10 8 10 15 17 16 10 3 6 10 6 5 11 14 15 16 15 11 13 17 13 11 10 11 11 9 8 8 5 5 9 10 8 6 4 5 5 6 7 9 11 9 9 8 7 8 10 11 11 11 12 13 14 14 13 13 12 12 15 17 14 13 17 25 29 20 13 16 19 20 21 19 18 20 23 27 30
17 24 27 16 6 7 11 9 12 12 8 7 9 10 13 15 15 12 4 2 4 7 8 13 16 13 12 14 12 11 16 14 11 15 17 12 10 11 8 5 8 10 8 7 5 4 5 4 4 6 8 8 6 9 9 6 5 10 13 14 16 15 13 13 13 11 12 12 12 13 13 11 14 16 21 26 20 12 13 15 16 17 15 13 15 18 22 28
23 28 29 18 7 10 12 8 10 10 5 6 9 9 11 14 14 13 8 5 6 8 14 18 16 10 8 12 11 10 14 11 9 15 15 8 8 12 10 10 13 12 8 7 5 4 7 6 4 6 8 5 4 7 7 5 4 9 12 14 17 16 13 12 11 12 14 13 11 12 11 12 14 14 16 22 18 10 8 7 8 12 13 15 19 23 27 31
Wind_Direction
249 247 245 244 244 244 244 244 244 244 245 248 251 251 252 257 260 260 259 258 257 256 250 242 239 237 238 241 243 244 247 251 254 254 249 247 248 249 249 249 251 253 255 257 257 261 266 268 271 279 277 259 250 247 236 229 209 198 219 235 233 238 226 193 194 192 130 162 150 156 171 201 170 204 267 282 247 240 247 234 231 234 233 237 239 240 248 235
249 247 246 246 244 244 244 242 243 243 242 245 249 250 250 252 257 259 260 260 259 257 250 242 238 237 237 241 244 246 249 252 256 254 247 246 247 246 247 247 247 250 252 254 254 254 256 256 259 264 260 252 244 239 234 212 201 213 234 233 235 245 229 193 218 206 208 236 176 164 185 227 242 228 255 271 257 237 243 236 227 233 235 237 237 237 243 239
250 248 247 248 245 243 243 241 241 242 241 243 245 248 248 249 252 256 259 259 257 252 245 240 237 237 236 240 245 246 253 262 263 256 248 244 245 245 245 246 245 247 249 252 253 252 249 248 253 250 240 245 234 223 230 210 205 217 224 235 240 247 247 227 231 220 222 248 246 210 223 242 235 223 223 262 269 248 247 246 227 230 235 240 240 236 238 238
250 249 247 249 247 243 243 240 239 240 240 241 242 244 246 247 249 252 255 255 253 245 237 238 237 234 234 240 245 245 259 279 272 264 258 252 247 244 243 243 243 244 246 249 251 252 249 245 246 234 224 236 220 217 228 208 204 205 209 239 247 244 257 241 227 225 228 240 253 244 240 251 241 223 218 244 268 254 250 250 249 255 250 248 248 240 236 236
249 249 248 248 248 245 244 242 239 239 238 239 240 240 243 246 246 248 250 249 247 238 231 235 234 231 233 236 243 241 247 280 279 270 271 264 249 242 240 239 239 240 242 245 246 247 243 235 234 220 219 231 205 211 228 212 210 220 220 243 255 245 258 251 224 227 231 231 244 240 242 257 250 225 218 229 250 259 270 271 271 280 279 270 262 247 239 237
248 248 248 248 248 245 244 245 241 237 237 237 238 239 240 243 243 244 245 244 242 234 227 230 230 225 227 231 236 227 212 221 64 115 257 301 251 230 229 233 234 236 237 239 237 236 230 215 216 213 214 226 212 214 222 207 211 236 235 235 247 245 250 260 238 237 234 226 234 234 244 253 251 242 222 227 244 259 277 285 286 287 286 284 272 251 241 239
249 248 248 247 247 245 243 245 243 239 238 235 236 237 237 240 241 242 241 240 238 233 226 226 227 221 221 224 228 223 221 226 202 106 95 43 328 213 209 222 229 232 231 232 229 223 215 201 211 215 212 222 217 217 217 204 209 233 245 230 237 244 248 255 257 249 238 226 234 237 244 241 243 256 238 236 249 261 272 281 284 281 282 284 275 257 245 242
249 249 249 247 246 245 244 244 242 241 238 232 232 234 234 236 237 239 239 237 236 232 224 221 223 219 215 218 224 229 232 229 214 172 101 59 40 128 192 205 220 227 225 226 225 220 212 204 209 208 217 227 206 206 209 211 218 225 240 239 239 247 252 255 247 246 244 232 237 238 250 254 251 258 260 253 258 266 273 278 278 275 276 275 272 264 251 244
248 248 249 248 247 246 245 244 242 241 238 231 229 231 231 231 232 234 236 235 234 231 222 217 220 218 212 219 224 235 242 233 218 211 226 249 43 51 181 198 211 220 221 221 219 217 212 208 208 203 225 230 203 208 202 211 229 217 228 237 240 246 252 255 242 240 244 238 243 246 256 263 258 259 265 259 259 267 271 270 270 269 270 270 270 266 257 249
247 246 247 248 248 247 246 245 242 241 239 234 231 229 228 228 229 231 232 232 232 230 221 214 219 216 212 217 218 234 246 243 234 224 229 241 246 268 241 199 210 215 217 218 215 214 210 208 208 209 231 234 208 214 202 209 236 205 222 237 240 247 251 252 244 239 242 244 245 246 259 264 254 244 259 256 249 254 260 264 265 265 266 268 268 263 257 254
246 245 245 245 246 247 246 245 243 242 241 239 235 231 227 225 226 229 228 228 230 228 220 214 217 216 213 216 216 228 237 238 248 232 230 239 244 247 244 237 219 212 215 218 217 215 210 209 209 209 224 230 205 211 211 218 238 223 223 243 242 247 251 246 242 230 232 249 239 238 262 262 228 212 250 249 241 251 258 264 265 264 265 267 268 261 255 253
245 244 243 243 243 245 245 244 242 243 242 240 237 231 226 224 224 226 224 224 226 226 220 212 215 218 214 220 224 226 230 227 228 219 228 236 242 245 245 248 243 226 222 221 225 226 215 208 206 208 209 211 192 193 230 223 230 234 222 249 250 246 249 241 235 221 218 235 220 227 268 256 216 221 249 250 247 258 261 261 261 262 262 264 266 263 258 254
244 242 242 241 241 242 242 242 241 242 241 239 239 232 226 224 223 223 222 220 221 222 218 210 215 219 215 225 232 231 234 236 232 210 212 227 240 245 246 249 249 247 244 238 242 241 226 210 203 212 220 225 201 181 255 212 212 227 221 245 253 248 250 238 228 206 211 225 195 201 264 255 229 228 242 245 247 254 254 254 256 256 258 259 260 261 260 257
243 242 241 240 240 240 240 240 239 240 240 237 239 237 230 226 223 221 220 218 217 217 213 209 215 217 217 229 238 237 238 240 239 230 204 208 235 245 246 246 248 248 244 242 249 247 233 215 204 215 227 226 215 215 256 155 195 219 223 233 237 249 254 224 207 184 202 219 188 203 257 259 254 237 233 238 247 248 243 249 251 249 253 254 255 256 256 257
242 242 241 240 238 238 238 238 236 237 238 235 237 238 233 228 224 221 219 215 214 212 207 209 215 212 218 234 239 240 240 238 236 231 215 205 227 242 243 240 240 238 231 230 235 235 228 211 202 211 215 208 200 209 224 210 206 205 222 232 222 236 242 198 189 185 207 211 183 204 254 260 253 251 246 243 246 241 237 247 248 244 248 250 252 253 253 255
241 240 241 240 237 236 237 237 236 234 235 235 234 235 236 230 225 224 218 211 211 207 201 205 212 211 218 238 238 236 236 234 235 232 223 212 218 234 239 234 228 220 215 218 220 224 220 204 197 202 195 193 203 212 223 233 229 209 224 241 228 227 235 220 180 190 210 206 187 208 243 266 242 245 250 246 239 234 234 245 248 243 245 248 250 251 252 254
242 240 240 239 238 236 235 236 236 233 232 233 231 233 236 230 225 225 217 209 208 205 204 206 208 209 219 238 230 226 228 230 234 233 226 219 217 226 235 226 216 209 204 205 208 213 212 197 188 196 194 203 210 206 218 228 231 218 221 240 239 237 237 223 177 185 205 213 211 214 235 253 252 250 251 246 240 234 234 244 250 246 243 247 248 249 251 252
243 241 239 238 238 237 235 235 235 233 230 230 231 230 232 233 229 222 212 205 201 201 206 204 199 199 222 230 220 216 223 228 231 230 226 219 217 222 227 217 211 206 197 194 198 198 199 190 183 192 190 207 209 200 213 224 227 219 217 231 237 237 237 232 229 173 184 209 230 223 233 244 246 250 251 253 248 236 235 243 251 251 245 245 247 248 250 251
242 241 240 237 237 236 236 235 233 233 228 228 230 228 230 233 227 216 205 198 191 189 194 189 188 187 222 222 213 212 224 227 226 223 220 214 213 220 227 218 203 195 188 183 190 185 177 167 187 204 193 203 208 208 217 222 218 220 221 232 239 238 240 235 230 187 181 214 234 229 241 246 241 240 243 252 251 238 240 245 251 256 251 247 247 249 250 251
241 240 239 237 236 235 235 234 232 232 227 225 224 222 222 215 214 205 193 196 195 192 192 189 193 197 178 201 207 210 211 215 212 207 212 210 206 214 222 224 204 194 188 183 186 182 178 181 199 211 208 207 208 213 222 226 236 244 238 241 243 245 248 225 209 188 183 228 243 237 245 248 245 240 234 245 251 242 239 246 251 254 254 250 247 250 252 252
241 240 239 238 236 233 233 233 232 230 226 224 218 214 214 204 202 183 177 192 203 199 199 197 199 201 189 128 200 201 186 177 200 202 207 206 201 205 212 214 209 200 199 191 176 164 183 210 215 214 218 215 213 217 223 229 237 248 250 250 250 247 249 234 211 195 178 225 253 252 253 251 249 249 235 237 250 249 239 242 249 251 252 253 250 252 254 254
241 241 240 237 235 232 231 230 230 229 226 224 216 213 216 211 214 204 181 182 200 202 206 205 201 200 203 209 191 193 186 167 186 197 197 196 197 200 197 203 212 215 207 194 168 165 194 218 221 219 220 220 221 219 221 229 236 242 244 247 253 247 245 240 214 206 188 216 254 259 260 260 256 252 239 229 242 253 246 240 247 250 249 251 251 252 254 255
242 241 239 236 234 231 229 227 228 227 223 221 216 215 218 216 218 208 187 169 191 201 205 203 199 199 203 208 183 182 182 170 177 188 189 189 192 196 190 193 212 217 216 204 185 190 201 215 222 221 215 216 223 218 216 225 232 237 237 237 243 238 235 244 217 202 201 223 255 266 265 266 262 252 241 228 233 248 249 241 246 250 248 250 253 255 256 257
245 241 238 234 231 229 227 226 224 224 221 219 218 218 218 218 218 205 185 142 176 200 203 205 201 200 202 201 185 178 177 181 183 182 187 186 183 191 194 191 203 214 219 214 205 206 211 214 218 217 213 217 221 215 211 216 227 232 232 234 240 235 235 251 228 193 214 233 247 268 273 266 255 248 245 229 225 238 245 240 242 245 246 249 252 255 257 258
245 242 238 232 228 226 225 223 219 220 220 218 217 217 217 218 216 205 187 130 324 190 197 204 202 204 203 200 194 177 175 188 188 186 189 188 183 182 192 194 197 213 219 218 216 217 223 223 214 211 215 219 220 218 210 208 225 235 229 229 236 240 241 248 235 204 246 251 230 228 258 267 254 244 244 230 217 227 235 237 237 238 241 242 243 249 253 256
243 240 236 230 226 222 219 216 216 217 216 216 217 214 214 216 208 198 188 170 229 174 178 189 190 204 203 200 188 171 182 198 191 195 192 192 192 181 183 193 195 217 215 216 226 223 232 233 223 216 216 217 221 223 213 206 222 238 228 221 228 237 241 242 237 227 249 261 223 189 244 273 271 245 243 232 223 229 229 230 234 235 237 237 237 243 248 252
238 235 232 228 223 217 211 210 214 213 209 212 215 211 212 213 203 192 188 269 225 159 160 175 178 192 196 194 178 165 183 181 178 197 194 193 193 184 193 195 192 218 202 194 223 201 193 226 226 220 217 216 218 225 218 207 221 240 182 184 208 224 233 237 239 239 248 265 252 195 233 273 275 254 242 228 228 241 237 230 234 231 232 238 238 239 246 251
233 230 228 224 220 215 210 210 210 207 208 213 210 206 207 204 193 183 190 254 176 142 149 168 177 179 177 180 179 177 178 161 165 195 194 195 190 184 208 203 193 208 189 188 215 195 195 215 220 218 222 221 215 226 215 201 223 240 122 158 196 214 223 222 226 238 244 251 245 225 199 257 268 263 237 220 227 244 243 235 238 229 220 231 237 235 243 251
227 225 223 220 217 214 212 210 206 207 212 211 204 201 194 185 177 168 212 233 130 129 152 159 170 163 154 163 179 191 191 160 161 180 187 194 190 187 209 208 204 205 195 205 222 212 205 216 220 215 223 228 219 225 206 198 221 201 136 187 217 214 209 205 221 234 233 234 238 224 206 235 265 267 236 213 223 237 243 240 241 234 220 224 236 239 243 249
221 219 218 215 210 208 209 208 207 211 210 204 202 194 176 169 169 170 232 209 100 178 160 153 160 154 153 159 177 193 193 162 154 160 172 187 188 189 188 193 204 205 205 214 227 235 236 240 226 216 226 228 224 225 210 209 210 153 149 220 233 219 214 217 223 226 235 239 228 215 216 225 259 267 241 221 233 234 240 245 242 239 227 223 234 241 244 248
215 213 212 209 205 203 201 202 205 207 201 198 194 180 169 167 180 199 209 166 96 188 160 148 153 149 158 167 175 190 190 172 158 154 159 173 179 182 170 172 180 185 213 217 225 241 243 242 234 238 250 226 221 225 215 214 200 163 180 213 219 215 216 223 211 208 231 235 216 214 217 220 242 260 246 221 244 237 234 244 244 245 237 225 231 240 245 248
211 210 208 205 203 200 198 200 201 197 194 191 179 168 165 182 215 203 165 143 159 189 156 148 151 153 170 178 177 183 181 173 166 162 166 168 168 181 185 186 178 185 209 207 211 228 235 238 228 245 290 215 216 220 205 207 195 193 199 194 204 209 195 207 203 207 225 225 216 211 210 217 237 254 256 249 256 257 255 264 263 263 261 242 237 245 249 251
208 207 205 203 201 198 199 201 197 190 184 180 172 164 166 215 205 171 145 162 192 168 154 158 163 165 173 177 177 176 173 165 163 168 173 170 169 189 201 199 190 197 207 197 207 217 227 237 225 230 244 205 213 212 194 193 188 199 198 190 203 207 210 219 211 216 228 229 224 200 198 213 232 254 257 251 252 259 261 260 255 259 263 258 251 253 254 254
204 204 202 201 200 198 198 196 192 187 176 171 170 169 200 208 174 143 157 181 154 149 159 163 160 162 170 175 174 171 168 169 169 168 171 171 176 191 201 206 204 208 184 185 202 206 217 231 212 208 201 188 204 215 209 193 186 199 199 206 213 205 221 232 227 231 232 225 197 179 189 195 203 236 252 242 245 247 249 247 243 247 250 252 255 256 255 254
202 201 200 199 197 196 196 191 189 186 174 168 168 192 206 195 155 150 161 158 138 146 155 151 145 152 167 171 167 170 173 170 168 166 168 174 184 191 192 200 203 198 183 190 196 199 219 237 194 194 198 190 199 213 211 193 197 201 185 214 227 211 224 241 246 246 244 236 182 181 211 199 217 247 250 233 226 205 235 244 240 244 245 245 250 253 254 254
199 197 198 197 193 192 192 188 185 181 173 168 173 205 197 192 153 160 160 163 158 145 139 141 145 152 161 161 165 176 184 165 163 170 181 184 191 193 193 197 193 192 194 195 187 185 212 233 195 189 203 207 203 200 195 188 187 183 187 208 228 231 242 248 251 256 249 245 208 188 225 218 244 265 246 238 243 202 206 233 232 232 231 232 240 246 249 251
195 193 193 194 192 189 187 185 181 175 172 175 222 191 184 198 173 164 154 151 146 143 139 140 157 162 162 166 177 178 175 161 166 176 183 183 194 195 196 198 188 190 199 202 208 193 204 232 213 186 203 214 209 202 199 197 191 183 201 194 162 42 298 264 251 221 218 241 215 202 225 212 218 252 225 224 239 228 204 204 219 220 217 223 232 241 247 250
190 190 191 193 190 184 184 185 179 172 171 183 202 164 161 184 181 167 156 144 142 148 146 143 160 170 170 172 180 177 172 167 172 181 182 181 196 191 189 197 193 194 200 203 214 218 198 235 210 181 202 205 197 202 209 207 206 215 214 168 160 222 224 210 240 234 225 234 210 211 226 215 207 226 227 215 229 230 204 198 215 217 212 220 231 239 247 251
184 184 188 190 187 182 182 181 174 170 171 198 186 169 150 156 177 172 160 149 149 153 151 152 156 163 176 177 175 172 175 179 174 176 185 183 192 186 180 182 191 196 198 197 208 176 166 235 224 180 197 181 170 196 215 212 213 225 256 183 179 244 217 214 241 265 238 241 236 210 217 222 209 222 240 236 231 228 199 200 216 223 224 225 231 240 246 251
175 174 180 181 181 180 178 173 168 168 178 194 179 167 145 134 169 173 161 153 152 152 155 161 155 153 167 173 173 172 176 182 175 176 191 179 178 188 179 176 179 187 192 193 202 196 140 224 225 168 138 173 180 195 203 207 205 205 215 210 204 196 211 254 261 250 242 254 252 219 216 229 204 214 236 243 245 238 216 212 212 218 229 231 234 242 248 252
169 167 166 171 175 174 169 168 166 169 182 180 175 155 152 143 149 162 160 153 137 21 141 149 148 151 156 163 171 173 174 179 177 182 194 185 189 203 188 183 171 165 180 193 204 205 189 204 214 201 177 206 208 206 223 225 213 205 211 210 210 212 221 246 245 231 225 247 262 258 256 260 188 217 239 246 254 252 239 232 223 223 234 239 243 249 252 255
164 174 162 167 173 170 164 162 160 167 181 172 150 142 148 142 149 157 158 152 125 32 114 124 131 141 147 161 166 167 171 178 182 186 196 198 198 196 183 180 165 156 167 190 201 195 176 202 222 228 230 216 198 21 286 256 225 229 231 209 212 216 216 233 245 246 234 226 234 255 256 257 286 295 277 264 271 308 330 285 256 246 245 248 254 258 261 262
155 142 158 165 172 170 165 164 155 161 183 147 132 134 142 143 153 156 157 156 142 130 131 113 132 142 152 164 154 159 166 173 186 187 189 198 197 179 173 168 157 157 167 185 189 174 156 200 222 228 239 244 230 53 55 116 148 232 266 182 212 221 211 220 240 284 281 226 224 251 250 242 254 265 268 281 343 31 13 342 278 265 269 274 276 279 281 283
136 134 151 163 171 170 166 179 160 150 143 140 128 120 124 127 154 160 165 167 149 148 140 123 147 142 150 157 148 160 163 163 189 190 183 191 186 154 168 166 160 165 179 185 174 167 175 196 209 217 230 238 232 232 225 207 203 223 227 190 190 217 229 211 179 243 266 220 214 243 251 241 283 289 279 286 352 33 334 320 294 290 305 315 316 315 312 310
125 135 151 160 167 169 168 169 157 138 134 140 128 131 128 105 146 149 146 139 66 128 128 125 143 113 112 139 140 161 166 144 182 184 180 184 171 127 168 171 173 174 173 170 163 163 179 192 197 209 217 216 217 225 235 219 200 212 220 198 193 204 211 215 215 236 252 227 212 241 258 321 321 310 298 295 328 351 299 297 316 317 319 320 322 320 318 317
128 140 152 155 160 165 163 158 152 138 145 142 128 141 141 134 139 113 113 100 38 93 97 99 132 113 122 147 145 162 171 55 104 166 170 169 155 162 177 177 183 178 153 159 161 161 180 202 203 214 222 223 218 213 328 38 157 190 207 203 207 207 203 208 222 231 248 271 263 261 270 301 299 293 291 294 299 288 276 288 312 309 309 311 312 311 310 310
144 145 147 141 136 133 134 154 155 146 154 151 139 147 140 134 144 119 74 52 109 119 91 45 141 142 152 157 154 164 156 88 95 162 171 170 129 96 162 173 185 175 154 159 166 160 166 211 209 217 231 240 229 121 44 42 122 182 194 193 207 213 206 210 224 232 241 252 260 262 254 256 271 275 279 282 274 265 270 286 294 293 297 301 302 302 301 300
141 124 133 132 116 133 140 148 157 149 148 145 134 145 141 138 153 155 94 94 145 141 106 76 173 169 162 154 150 158 149 115 153 170 166 160 133 120 145 156 190 176 161 164 174 168 201 218 206 210 232 242 218 143 170 335 143 195 187 189 206 211 208 211 224 234 235 228 246 259 245 234 244 261 271 271 247 248 269 274 276 278 281 286 292 295 296 295
113 101 102 105 104 143 140 138 146 144 143 138 126 147 148 146 152 148 104 134 152 159 147 160 179 173 163 156 146 157 165 158 168 178 161 150 149 147 150 159 206 188 176 174 180 188 219 211 187 197 230 242 228 208 229 245 257 265 254 249 248 231 221 221 225 231 230 228 239 252 249 241 239 253 266 266 246 239 258 266 269 273 277 280 286 289 290 292
141 141 133 95 74 128 134 137 145 143 143 144 141 153 153 149 148 134 108 158 160 173 168 154 164 168 165 163 156 168 180 170 156 167 161 151 161 171 167 165 173 178 182 182 179 196 217 201 155 173 232 248 228 223 236 234 247 261 258 255 250 242 237 235 234 230 229 230 234 245 256 260 251 252 262 267 263 252 261 271 277 280 282 285 286 286 290 296
148 154 149 131 94 134 135 136 146 142 147 152 146 155 155 152 148 133 92 30 129 152 150 142 151 158 163 174 176 172 178 173 161 167 163 157 165 170 167 156 149 158 177 184 172 172 198 204 139 165 232 244 190 196 219 218 231 253 254 246 237 234 232 232 234 229 224 227 228 236 249 254 249 252 262 269 273 272 273 280 286 287 291 298 294 289 293 298
139 147 149 136 117 149 146 141 149 145 143 145 144 152 151 148 147 137 116 49 52 116 139 142 145 144 162 187 188 165 165 162 147 152 150 132 134 141 135 141 155 163 168 167 165 166 183 200 181 183 224 238 163 174 183 166 217 248 245 233 226 229 233 237 243 235 223 219 223 231 235 241 247 253 263 269 273 280 283 284 293 303 310 309 300 293 289 288
Height
1505 1507 1509 1511 1512 1514 1516 1518 1519 1521 1522 1524 1525 1526 1527 1529 1530 1531 1532 1533 1534 1535 1536 1537 1537 1538 1539 1540 1541 1542 1543 1543 1543 1542 1541 1540 1543 1547 1549 1551 1553 1554 1555 1557 1558 1560 1561 1562 1563 1564 1565 1565 1565 1564 1565 1565 1565 1565 1563 1565 1564 1560 1559 1557 1556 1558 1556 1555 1555 1557 1558 1558 1558 1559 1559 1559 1559 1559 1558 1558 1558 1558 1558 1559 1559 1560 1560 1559
1502 1503 1505 1507 1509 1511 1513 1515 1516 1518 1520 1521 1523 1524 1525 1527 1528 1529 1530 1532 1533 1534 1535 1535 1536 1537 1538 1539 1540 1541 1542 1542 1541 1538 1536 1539 1542 1544 1546 1549 1551 1552 1554 1556 1557 1559 1561 1562 1562 1563 1564 1564 1564 1564 1564 1564 1564 1563 1562 1564 1561 1556 1554 1554 1555 1555 1555 1555 1555 1556 1557 1557 1557 1558 1559 1558 1557 1557 1557 1557 1557 1557 1557 1557 1558 1558 1559 1559
1498 1500 1502 1504 1505 1508 1510 1512 1514 1515 1517 1519 1520 1522 1523 1525 1526 1527 1528 1530 1531 1532 1533 1534 1535 1536 1537 1538 1539 1540 1541 1541 1538 1532 1533 1537 1539 1541 1544 1546 1549 1551 1553 1554 1556 1558 1559 1561 1562 1563 1564 1564 1563 1564 1564 1563 1563 1562 1562 1563 1558 1553 1554 1555 1555 1555 1556 1556 1555 1556 1556 1556 1557 1557 1558 1557 1556 1555 1555 1555 1556 1555 1555 1555 1556 1557 1557 1558
1495 1496 1498 1500 1502 1504 1507 1509 1510 1512 1515 1516 1518 1520 1521 1523 1524 1526 1527 1528 1530 1531 1532 1534 1535 1535 1536 1537 1539 1540 1541 1541 1534 1529 1532 1534 1536 1538 1541 1543 1546 1549 1551 1552 1554 1556 1558 1560 1561 1562 1563 1562 1562 1563 1563 1562 1562 1561 1560 1559 1555 1553 1554 1554 1555 1555 1556 1556 1556 1556 1556 1556 1555 1556 1557 1556 1556 1553 1551 1553 1554 1554 1554 1554 1554 1555 1556 1556
1491 1493 1495 1497 1499 1501 1503 1505 1507 1510 1512 1513 1516 1518 1519 1521 1522 1524 1525 1527 1528 1530 1531 1533 1533 1535 1536 1536 1538 1539 1543 1541 1531 1528 1530 1530 1531 1534 1537 1541 1544 1547 1549 1550 1552 1554 1556 1558 1560 1561 1561 1560 1561 1562 1561 1561 1561 1560 1558 1556 1554 1555 1554 1553 1554 1555 1556 1556 1556 1556 1556 1555 1555 1555 1555 1555 1554 1550 1550 1552 1552 1553 1554 1553 1553 1554 1554 1555
1487 1489 1491 1493 1495 1497 1499 1501 1504 1506 1508 1511 1513 1515 1517 1519 1520 1522 1524 1525 1527 1528 1530 1531 1533 1534 1535 1536 1538 1539 1541 1536 1528 1527 1528 1527 1527 1528 1533 1538 1541 1544 1546 1548 1550 1552 1554 1557 1558 1559 1559 1558 1558 1558 1559 1559 1561 1559 1555 1555 1555 1555 1554 1553 1554 1555 1555 1556 1556 1556 1555 1555 1554 1553 1553 1553 1551 1549 1550 1551 1551 1552 1552 1552 1552 1552 1552 1553
1482 1484 1487 1489 1491 1493 1495 1498 1500 1503 1505 1508 1510 1512 1515 1516 1518 1520 1522 1524 1525 1527 1529 1530 1532 1533 1534 1536 1537 1538 1536 1529 1527 1528 1527 1526 1525 1526 1531 1535 1539 1542 1544 1546 1547 1550 1552 1555 1556 1556 1557 1556 1556 1556 1557 1558 1559 1558 1555 1554 1555 1555 1554 1553 1554 1554 1555 1555 1555 1555 1555 1554 1553 1552 1551 1550 1549 1549 1550 1549 1550 1550 1550 1551 1550 1550 1550 1550
1477 1479 1482 1484 1487 1489 1492 1494 1497 1499 1501 1504 1507 1509 1512 1514 1516 1518 1520 1522 1523 1525 1527 1529 1531 1531 1533 1534 1535 1535 1530 1524 1526 1528 1526 1526 1526 1528 1531 1533 1537 1539 1541 1544 1545 1548 1550 1552 1554 1555 1555 1554 1554 1555 1556 1557 1557 1556 1554 1554 1554 1554 1553 1553 1553 1554 1555 1555 1554 1555 1554 1552 1552 1551 1550 1547 1547 1548 1548 1548 1548 1549 1549 1549 1549 1549 1549 1549
1473 1475 1477 1480 1482 1485 1488 1490 1493 1495 1497 1500 1503 1506 1508 1511 1513 1515 1517 1519 1521 1523 1525 1527 1529 1530 1532 1533 1534 1531 1522 1520 1526 1527 1526 1527 1528 1530 1532 1534 1536 1537 1540 1542 1545 1547 1548 1550 1551 1553 1553 1553 1553 1553 1555 1556 1554 1551 1553 1553 1553 1552 1552 1552 1552 1553 1554 1554 1554 1554 1553 1551 1550 1551 1547 1543 1545 1546 1546 1546 1546 1546 1547 1547 1547 1547 1547 1547
1469 1471 1473 1475 1478 1480 1483 1486 1489 1492 1494 1497 1500 1502 1505 1508 1510 1513 1515 1517 1519 1521 1523 1526 1527 1529 1530 1530 1532 1526 1517 1520 1525 1525 1527 1527 1529 1531 1533 1535 1535 1537 1539 1541 1543 1545 1546 1548 1550 1552 1553 1552 1552 1552 1553 1553 1551 1550 1552 1551 1551 1551 1550 1550 1550 1552 1553 1553 1554 1553 1551 1548 1549 1550 1544 1540 1543 1544 1544 1544 1544 1544 1544 1545 1545 1545 1545 1545
1465 1467 1469 1471 1474 1476 1479 1482 1485 1488 1491 1494 1496 1499 1502 1505 1508 1510 1513 1515 1517 1519 1521 1524 1526 1527 1528 1528 1527 1520 1516 1520 1522 1524 1527 1527 1529 1531 1532 1534 1535 1537 1538 1540 1542 1543 1545 1547 1549 1552 1552 1551 1551 1551 1551 1550 1550 1550 1551 1551 1550 1550 1549 1548 1548 1550 1551 1551 1551 1552 1550 1547 1548 1547 1540 1540 1542 1542 1543 1542 1542 1542 1542 1543 1543 1543 1543 1543
1460 1462 1465 1467 1470 1472 1475 1478 1481 1485 1488 1491 1493 1496 1499 1502 1504 1507 1510 1513 1515 1518 1519 1522 1524 1525 1526 1525 1520 1515 1517 1520 1521 1524 1526 1526 1528 1529 1530 1533 1535 1536 1537 1539 1540 1542 1544 1546 1549 1551 1550 1549 1550 1551 1550 1549 1550 1551 1551 1551 1549 1548 1545 1544 1546 1548 1549 1549 1549 1552 1550 1543 1542 1541 1536 1539 1541 1540 1541 1541 1540 1540 1540 1541 1541 1541 1541 1540
1455 1458 1461 1463 1466 1469 1472 1474 1477 1481 1484 1487 1490 1493 1496 1498 1502 1504 1507 1510 1513 1516 1518 1520 1521 1523 1525 1519 1513 1514 1517 1519 1522 1524 1525 1526 1526 1527 1529 1531 1533 1535 1537 1538 1539 1541 1543 1545 1548 1548 1548 1548 1549 1549 1548 1548 1551 1550 1550 1549 1548 1547 1540 1538 1542 1544 1547 1547 1548 1554 1548 1535 1533 1533 1532 1536 1538 1538 1539 1538 1537 1537 1537 1538 1538 1538 1538 1538
1450 1453 1456 1459 1461 1464 1467 1470 1474 1477 1481 1484 1487 1490 1493 1496 1499 1501 1504 1507 1510 1513 1516 1518 1519 1521 1521 1514 1510 1514 1516 1518 1521 1523 1524 1525 1525 1526 1528 1530 1532 1534 1536 1538 1539 1540 1542 1544 1547 1547 1548 1548 1548 1548 1548 1549 1550 1548 1549 1548 1547 1546 1537 1533 1538 1540 1544 1544 1545 1552 1545 1531 1529 1529 1530 1533 1535 1536 1536 1535 1534 1533 1534 1535 1535 1535 1535 1536
1445 1448 1451 1454 1457 1460 1463 1466 1470 1473 1477 1480 1484 1487 1490 1493 1496 1498 1501 1504 1507 1511 1513 1516 1517 1519 1518 1512 1509 1512 1513 1516 1517 1519 1523 1525 1525 1526 1527 1529 1531 1532 1534 1536 1537 1539 1540 1542 1545 1546 1546 1547 1548 1549 1548 1549 1547 1547 1548 1545 1542 1543 1537 1533 1535 1536 1539 1541 1543 1548 1541 1530 1530 1529 1529 1531 1532 1534 1533 1532 1531 1531 1531 1531 1531 1532 1532 1533
1440 1443 1446 1449 1453 1456 1459 1462 1466 1470 1474 1477 1481 1484 1487 1490 1493 1495 1498 1501 1505 1508 1511 1512 1513 1516 1515 1509 1508 1509 1509 1510 1511 1516 1521 1523 1525 1525 1526 1528 1529 1531 1533 1534 1536 1538 1538 1540 1543 1544 1545 1546 1546 1547 1549 1550 1547 1543 1543 1539 1537 1539 1538 1535 1534 1533 1535 1538 1540 1542 1535 1528 1528 1527 1528 1529 1529 1531 1531 1529 1528 1528 1527 1528 1529 1529 1529 1530
1435 1438 1441 1444 1448 1451 1455 1458 1462 1466 1470 1474 1478 1481 1484 1488 1491 1493 1496 1499 1501 1504 1507 1507 1509 1514 1512 1505 1503 1503 1502 1504 1508 1513 1518 1521 1524 1524 1526 1527 1528 1530 1531 1533 1535 1536 1537 1538 1540 1542 1542 1542 1542 1545 1551 1549 1541 1538 1539 1538 1534 1533 1535 1534 1533 1533 1533 1535 1537 1538 1533 1528 1526 1526 1526 1527 1528 1528 1528 1527 1525 1525 1525 1524 1526 1526 1526 1526
1430 1433 1435 1439 1443 1446 1450 1453 1457 1461 1466 1471 1475 1478 1482 1486 1489 1491 1492 1495 1499 1503 1505 1506 1509 1513 1505 1496 1496 1497 1498 1502 1507 1511 1514 1518 1522 1523 1525 1526 1526 1529 1531 1532 1534 1535 1536 1537 1538 1539 1540 1541 1538 1539 1541 1535 1531 1534 1536 1536 1533 1532 1533 1531 1531 1532 1533 1535 1536 1535 1532 1528 1526 1525 1525 1525 1526 1526 1525 1524 1523 1522 1523 1522 1523 1523 1523 1523
1424 1427 1430 1434 1437 1441 1445 1449 1453 1457 1462 1467 1472 1476 1480 1484 1486 1486 1486 1488 1491 1492 1493 1495 1497 1496 1489 1485 1489 1494 1497 1501 1505 1509 1511 1515 1520 1522 1524 1525 1525 1527 1529 1530 1531 1532 1534 1536 1538 1537 1536 1535 1530 1528 1527 1525 1528 1530 1529 1531 1533 1533 1531 1529 1530 1530 1531 1534 1534 1531 1528 1525 1525 1524 1524 1524 1524 1524 1523 1522 1521 1520 1520 1520 1520 1519 1519 1519
1418 1421 1425 1429 1432 1436 1440 1444 1448 1452 1458 1463 1467 1472 1474 1474 1476 1475 1475 1477 1477 1476 1478 1481 1481 1482 1482 1483 1488 1492 1497 1501 1503 1506 1509 1513 1518 1521 1523 1524 1524 1525 1525 1525 1527 1529 1532 1534 1534 1530 1525 1523 1524 1525 1524 1526 1528 1529 1529 1531 1531 1531 1529 1527 1529 1528 1529 1531 1528 1525 1524 1521 1520 1520 1520 1522 1521 1520 1520 1520 1519 1518 1518 1517 1517 1517 1516 1516
1412 1416 1420 1423 1427 1431 1435 1439 1443 1448 1453 1457 1461 1463 1461 1461 1462 1460 1463 1471 1474 1476 1478 1480 1481 1483 1484 1485 1486 1489 1495 1499 1502 1504 1507 1511 1515 1518 1520 1521 1522 1522 1521 1521 1524 1527 1530 1531 1527 1521 1517 1518 1523 1526 1527 1528 1529 1531 1532 1531 1529 1529 1527 1525 1527 1526 1528 1531 1524 1521 1521 1517 1517 1517 1516 1518 1517 1515 1516 1516 1515 1515 1515 1514 1513 1514 1513 1513
1407 1410 1414 1418 1422 1426 1430 1435 1438 1444 1449 1452 1453 1453 1453 1455 1455 1455 1458 1465 1471 1476 1478 1479 1482 1485 1485 1485 1486 1488 1492 1497 1500 1503 1505 1509 1512 1514 1516 1518 1520 1519 1518 1520 1523 1526 1528 1526 1519 1514 1516 1520 1523 1524 1528 1530 1530 1532 1532 1531 1530 1526 1525 1526 1526 1525 1528 1530 1525 1522 1521 1515 1513 1513 1512 1513 1512 1511 1512 1512 1511 1511 1511 1510 1510 1510 1510 1510
1400 1403 1408 1412 1416 1421 1425 1429 1435 1440 1442 1444 1445 1445 1448 1453 1457 1459 1461 1463 1466 1471 1474 1477 1479 1481 1482 1483 1484 1487 1489 1492 1496 1499 1502 1505 1508 1510 1512 1515 1516 1517 1517 1518 1519 1522 1523 1518 1512 1512 1518 1521 1521 1524 1529 1532 1531 1530 1529 1530 1528 1525 1528 1529 1526 1526 1527 1527 1524 1523 1521 1513 1510 1509 1506 1507 1507 1507 1508 1507 1507 1507 1505 1506 1506 1506 1506 1506
1392 1397 1401 1405 1411 1416 1419 1426 1431 1433 1434 1438 1439 1441 1447 1453 1456 1458 1462 1467 1467 1467 1470 1475 1477 1478 1479 1481 1484 1486 1488 1489 1492 1495 1498 1501 1504 1507 1509 1510 1513 1514 1514 1513 1515 1515 1512 1509 1508 1512 1516 1517 1520 1524 1528 1530 1528 1525 1525 1527 1524 1524 1528 1527 1525 1526 1526 1525 1523 1526 1525 1511 1504 1506 1501 1500 1502 1501 1501 1501 1500 1500 1499 1500 1502 1501 1502 1502
1383 1389 1393 1399 1405 1409 1416 1423 1423 1425 1430 1431 1433 1440 1447 1451 1453 1456 1460 1467 1467 1465 1469 1473 1475 1477 1478 1481 1484 1485 1487 1488 1489 1492 1495 1497 1500 1504 1506 1508 1510 1511 1510 1510 1512 1513 1509 1507 1509 1512 1513 1515 1518 1521 1522 1524 1525 1524 1521 1520 1522 1524 1526 1528 1528 1528 1530 1528 1521 1527 1532 1510 1495 1499 1495 1493 1496 1493 1493 1494 1492 1492 1492 1494 1495 1496 1497 1497
1373 1379 1384 1391 1397 1405 1413 1413 1412 1421 1425 1424 1428 1438 1444 1447 1452 1456 1460 1465 1462 1459 1463 1467 1470 1472 1473 1478 1481 1485 1489 1487 1487 1490 1492 1495 1498 1500 1503 1505 1506 1506 1506 1508 1511 1512 1510 1507 1507 1509 1511 1513 1516 1516 1516 1519 1525 1522 1514 1515 1521 1524 1526 1527 1528 1530 1532 1528 1521 1526 1531 1513 1493 1491 1489 1488 1489 1485 1486 1487 1483 1485 1488 1488 1489 1491 1492 1492
1362 1368 1375 1382 1389 1398 1402 1399 1405 1413 1414 1416 1425 1434 1440 1444 1451 1455 1460 1464 1452 1445 1454 1460 1463 1464 1466 1472 1476 1481 1485 1481 1484 1489 1489 1493 1496 1498 1500 1499 1502 1503 1502 1508 1512 1508 1506 1507 1507 1506 1509 1511 1512 1512 1511 1516 1522 1517 1510 1514 1521 1522 1524 1527 1530 1531 1527 1526 1527 1525 1527 1522 1500 1485 1484 1484 1483 1481 1479 1478 1476 1479 1483 1483 1485 1486 1487 1487
1351 1358 1365 1373 1381 1387 1389 1393 1400 1402 1405 1413 1420 1428 1435 1440 1447 1452 1457 1455 1434 1429 1445 1453 1456 1459 1462 1469 1473 1476 1476 1474 1480 1486 1487 1491 1494 1496 1498 1496 1498 1500 1500 1505 1507 1500 1499 1504 1505 1505 1508 1508 1507 1507 1508 1514 1518 1513 1511 1515 1517 1519 1522 1527 1530 1529 1526 1529 1531 1524 1525 1529 1502 1476 1478 1481 1478 1477 1471 1471 1472 1473 1477 1480 1481 1481 1481 1482
1341 1348 1355 1364 1374 1380 1385 1389 1392 1395 1403 1412 1418 1426 1432 1438 1445 1447 1448 1439 1420 1422 1437 1444 1453 1459 1461 1467 1471 1473 1473 1473 1478 1482 1485 1489 1492 1493 1495 1495 1496 1498 1499 1501 1501 1498 1497 1499 1500 1503 1506 1505 1503 1504 1506 1511 1511 1510 1513 1514 1515 1517 1520 1525 1526 1527 1531 1531 1528 1522 1522 1527 1501 1469 1473 1478 1471 1468 1465 1466 1469 1468 1471 1474 1474 1475 1475 1476
1332 1339 1347 1357 1366 1373 1380 1384 1386 1392 1402 1410 1416 1424 1430 1436 1439 1438 1435 1422 1415 1425 1432 1435 1445 1451 1456 1464 1468 1471 1473 1474 1476 1479 1484 1488 1490 1492 1493 1495 1497 1499 1501 1501 1500 1498 1496 1497 1499 1500 1501 1500 1500 1503 1504 1506 1508 1511 1515 1517 1518 1519 1520 1523 1523 1527 1532 1523 1518 1517 1512 1519 1504 1466 1462 1470 1461 1459 1462 1463 1464 1464 1466 1467 1468 1470 1470 1472
1324 1331 1340 1349 1354 1362 1370 1373 1379 1389 1397 1405 1413 1420 1427 1430 1425 1421 1417 1409 1415 1427 1427 1430 1439 1445 1452 1457 1461 1465 1469 1473 1474 1476 1482 1485 1489 1491 1492 1496 1499 1502 1504 1503 1502 1500 1498 1498 1499 1498 1498 1498 1500 1502 1503 1504 1508 1512 1515 1518 1522 1525 1525 1525 1525 1527 1525 1511 1507 1507 1502 1513 1506 1465 1452 1460 1454 1456 1460 1458 1460 1462 1463 1464 1464 1466 1466 1467
1317 1324 1332 1340 1346 1352 1357 1362 1373 1384 1391 1399 1406 1411 1419 1423 1413 1403 1402 1406 1417 1422 1420 1426 1433 1439 1446 1448 1451 1456 1461 1467 1470 1472 1476 1481 1486 1487 1487 1488 1491 1498 1502 1502 1502 1501 1498 1496 1496 1498 1497 1498 1500 1502 1505 1507 1510 1512 1513 1516 1523 1526 1525 1522 1519 1515 1508 1500 1495 1497 1500 1506 1496 1463 1451 1456 1455 1456 1458 1457 1460 1461 1461 1462 1462 1462 1463 1463
1313 1320 1326 1333 1339 1345 1351 1360 1372 1379 1385 1394 1401 1404 1408 1407 1397 1389 1395 1405 1410 1410 1413 1420 1423 1429 1437 1443 1450 1453 1458 1465 1468 1470 1473 1477 1482 1484 1484 1483 1483 1488 1492 1495 1499 1500 1499 1496 1495 1498 1497 1495 1496 1498 1502 1504 1506 1509 1508 1510 1514 1517 1517 1511 1506 1501 1498 1494 1489 1492 1499 1499 1487 1461 1446 1450 1454 1455 1456 1457 1460 1460 1460 1461 1459 1459 1459 1458
1310 1316 1322 1330 1336 1342 1350 1359 1367 1374 1381 1388 1396 1399 1396 1387 1381 1387 1398 1401 1401 1404 1408 1413 1420 1430 1436 1441 1446 1448 1456 1464 1464 1467 1472 1475 1481 1483 1483 1483 1482 1483 1485 1490 1494 1495 1497 1493 1488 1491 1490 1488 1489 1490 1492 1494 1499 1501 1501 1503 1503 1503 1505 1498 1492 1489 1490 1491 1490 1493 1495 1489 1476 1455 1440 1445 1449 1450 1452 1452 1455 1456 1456 1457 1457 1457 1456 1454
1307 1313 1319 1327 1333 1340 1348 1354 1360 1369 1377 1382 1388 1390 1380 1370 1372 1384 1395 1396 1397 1403 1408 1412 1420 1433 1439 1442 1445 1446 1451 1458 1461 1466 1470 1471 1474 1475 1477 1479 1480 1482 1483 1487 1488 1488 1491 1485 1476 1479 1481 1480 1484 1486 1487 1492 1497 1497 1498 1503 1498 1492 1491 1485 1479 1478 1481 1487 1487 1487 1481 1468 1456 1445 1440 1445 1445 1445 1449 1448 1450 1452 1451 1454 1454 1453 1453 1451
1305 1310 1316 1321 1326 1335 1343 1349 1355 1363 1370 1375 1379 1376 1367 1365 1371 1377 1382 1387 1388 1394 1407 1418 1424 1430 1438 1442 1445 1446 1448 1452 1458 1464 1466 1467 1469 1470 1471 1472 1475 1477 1478 1479 1479 1481 1487 1481 1472 1476 1479 1477 1480 1482 1484 1489 1492 1494 1494 1495 1492 1489 1488 1484 1481 1479 1483 1484 1475 1470 1469 1462 1456 1446 1438 1441 1442 1442 1446 1446 1447 1448 1448 1450 1449 1447 1448 1447
1301 1306 1311 1315 1321 1330 1338 1345 1352 1359 1367 1371 1370 1366 1364 1368 1373 1373 1375 1379 1382 1385 1395 1411 1419 1424 1431 1436 1439 1440 1443 1449 1454 1457 1461 1464 1465 1465 1466 1466 1468 1470 1471 1472 1473 1474 1479 1476 1470 1474 1477 1475 1476 1479 1481 1482 1484 1491 1491 1485 1488 1494 1495 1494 1491 1483 1485 1486 1471 1463 1463 1464 1465 1451 1433 1435 1439 1437 1440 1442 1443 1444 1444 1445 1444 1443 1443 1442
1298 1304 1309 1312 1318 1327 1334 1343 1350 1357 1365 1368 1365 1364 1367 1370 1372 1373 1373 1375 1379 1382 1387 1397 1407 1414 1420 1425 1430 1434 1438 1444 1448 1451 1455 1459 1458 1454 1457 1462 1463 1465 1466 1469 1473 1473 1475 1475 1470 1471 1473 1472 1475 1480 1482 1479 1477 1482 1484 1480 1485 1493 1492 1493 1492 1481 1478 1479 1469 1462 1459 1455 1455 1445 1433 1434 1435 1432 1436 1439 1439 1440 1441 1442 1441 1440 1440 1438
1297 1303 1307 1310 1317 1325 1332 1341 1348 1354 1361 1362 1359 1362 1367 1370 1371 1372 1372 1373 1375 1378 1383 1389 1396 1406 1412 1415 1420 1428 1432 1434 1440 1445 1448 1452 1452 1447 1450 1456 1459 1462 1465 1468 1472 1472 1475 1477 1471 1469 1471 1471 1474 1480 1481 1479 1478 1480 1482 1479 1481 1487 1486 1484 1482 1475 1471 1469 1463 1461 1459 1451 1442 1435 1431 1431 1430 1430 1434 1436 1437 1438 1438 1438 1438 1436 1436 1434
1295 1300 1303 1307 1314 1323 1332 1341 1347 1350 1355 1355 1355 1360 1365 1369 1371 1371 1371 1372 1372 1375 1380 1384 1389 1399 1407 1411 1416 1422 1426 1428 1434 1440 1442 1445 1448 1447 1447 1450 1454 1460 1464 1467 1470 1471 1475 1480 1474 1470 1474 1474 1472 1474 1473 1472 1474 1479 1482 1481 1480 1483 1483 1481 1478 1473 1473 1471 1461 1456 1455 1445 1433 1428 1427 1427 1428 1429 1432 1433 1434 1435 1435 1435 1434 1433 1432 1431
1292 1297 1300 1305 1313 1321 1330 1338 1342 1345 1350 1353 1356 1360 1363 1365 1368 1371 1373 1373 1373 1374 1375 1379 1385 1393 1400 1407 1412 1417 1422 1427 1432 1436 1439 1440 1442 1444 1443 1444 1448 1456 1463 1467 1469 1468 1472 1476 1473 1470 1474 1473 1469 1468 1467 1466 1467 1470 1472 1473 1474 1476 1478 1480 1475 1468 1470 1472 1464 1459 1458 1445 1430 1426 1426 1425 1426 1428 1429 1431 1432 1433 1433 1432 1431 1431 1430 1430
1289 1293 1294 1300 1311 1319 1327 1333 1337 1342 1347 1350 1353 1356 1359 1363 1366 1369 1373 1373 1374 1375 1376 1380 1385 1391 1397 1401 1406 1411 1417 1423 1428 1431 1434 1434 1435 1439 1441 1443 1446 1452 1458 1463 1465 1464 1466 1470 1471 1469 1469 1468 1468 1469 1470 1469 1468 1469 1469 1466 1466 1467 1470 1474 1470 1463 1463 1464 1461 1463 1463 1449 1433 1429 1429 1427 1427 1429 1430 1432 1432 1432 1433 1431 1430 1430 1429 1428
1285 1290 1293 1299 1308 1316 1324 1331 1335 1341 1345 1347 1351 1353 1356 1360 1364 1369 1371 1371 1373 1374 1377 1383 1386 1390 1397 1400 1405 1411 1415 1420 1424 1426 1429 1432 1435 1437 1440 1442 1445 1449 1454 1458 1461 1464 1466 1468 1470 1470 1466 1465 1467 1469 1469 1470 1471 1471 1470 1469 1467 1464 1465 1469 1470 1470 1468 1461 1458 1462 1461 1447 1434 1431 1430 1429 1430 1432 1433 1433 1433 1433 1431 1430 1430 1428 1428 1427
1284 1290 1296 1302 1308 1313 1318 1323 1328 1337 1344 1345 1348 1352 1355 1359 1363 1366 1369 1369 1370 1371 1374 1381 1385 1388 1393 1398 1403 1409 1413 1419 1424 1425 1426 1430 1434 1437 1438 1440 1443 1445 1447 1449 1452 1459 1464 1465 1466 1469 1470 1470 1469 1468 1467 1467 1469 1467 1464 1467 1470 1467 1469 1474 1475 1476 1473 1461 1456 1459 1454 1442 1435 1432 1431 1431 1431 1432 1433 1433 1434 1433 1432 1431 1429 1428 1427 1425
1284 1292 1298 1304 1311 1313 1314 1316 1321 1333 1340 1342 1345 1350 1355 1361 1364 1365 1367 1368 1369 1368 1372 1380 1384 1386 1392 1397 1403 1408 1411 1415 1420 1423 1427 1430 1433 1438 1438 1439 1441 1442 1443 1445 1448 1453 1459 1461 1461 1463 1466 1467 1463 1459 1457 1456 1459 1461 1460 1462 1465 1466 1467 1470 1471 1473 1470 1460 1455 1456 1453 1447 1441 1434 1431 1432 1432 1432 1433 1433 1433 1432 1431 1431 1429 1428 1427 1424
1280 1289 1297 1303 1311 1315 1315 1316 1319 1327 1333 1337 1343 1348 1352 1359 1366 1366 1367 1369 1370 1370 1374 1381 1384 1387 1392 1397 1403 1409 1411 1414 1417 1420 1425 1429 1433 1436 1437 1438 1440 1441 1444 1446 1447 1451 1456 1457 1457 1455 1452 1449 1447 1450 1453 1451 1452 1456 1458 1457 1459 1461 1461 1463 1466 1467 1465 1462 1458 1456 1457 1459 1453 1439 1431 1431 1432 1431 1430 1431 1432 1431 1430 1428 1428 1427 1426 1424
1279 1286 1292 1297 1306 1313 1316 1320 1321 1323 1327 1331 1337 1345 1350 1357 1363 1366 1368 1370 1370 1370 1376 1382 1383 1385 1390 1394 1400 1406 1410 1415 1417 1417 1421 1427 1431 1435 1437 1438 1440 1442 1444 1446 1446 1450 1454 1455 1454 1453 1449 1443 1443 1451 1456 1455 1452 1454 1456 1456 1456 1459 1461 1463 1465 1461 1460 1465 1462 1452 1455 1462 1456 1441 1431 1430 1430 1428 1427 1428 1429 1429 1429 1427 1426 1425 1424 1423
1281 1286 1290 1292 1299 1307 1313 1318 1321 1323 1327 1330 1335 1341 1347 1353 1359 1362 1366 1370 1370 1370 1375 1383 1384 1383 1386 1390 1394 1403 1411 1417 1420 1418 1419 1426 1431 1435 1438 1440 1441 1441 1443 1446 1446 1448 1451 1450 1449 1452 1451 1446 1447 1454 1456 1456 1455 1455 1457 1458 1457 1459 1460 1463 1463 1458 1458 1463 1458 1449 1451 1454 1448 1437 1427 1425 1427 1426 1424 1425 1426 1426 1427 1426 1425 1423 1421 1421
1281 1287 1293 1294 1297 1302 1308 1314 1319 1323 1327 1331 1336 1340 1343 1348 1354 1358 1362 1366 1370 1370 1371 1379 1383 1383 1385 1387 1390 1398 1406 1410 1416 1418 1419 1425 1429 1431 1436 1440 1440 1440 1441 1443 1445 1446 1447 1445 1446 1451 1451 1447 1449 1453 1454 1455 1456 1456 1456 1456 1456 1457 1457 1457 1456 1454 1453 1456 1452 1448 1447 1443 1439 1433 1422 1417 1421 1421 1420 1422 1422 1422 1423 1424 1423 1422 1419 1418
1279 1283 1289 1296 1301 1305 1308 1313 1317 1321 1327 1329 1334 1339 1340 1344 1351 1357 1361 1362 1365 1368 1369 1373 1379 1382 1384 1386 1387 1392 1395 1397 1404 1411 1415 1421 1425 1425 1429 1432 1433 1437 1440 1441 1443 1446 1445 1444 1445 1450 1451 1449 1449 1451 1453 1454 1455 1454 1453 1452 1452 1453 1452 1451 1449 1448 1449 1451 1449 1448 1446 1441 1436 1429 1418 1413 1417 1418 1418 1420 1421 1421 1422 1421 1421 1420 1417 1416
1278 1281 1284 1290 1302 1308 1311 1315 1316 1320 1326 1329 1332 1338 1339 1343 1349 1355 1362 1364 1362 1365 1368 1370 1377 1383 1385 1387 1386 1389 1392 1394 1399 1403 1406 1411 1414 1416 1421 1424 1427 1434 1439 1440 1441 1444 1446 1446 1446 1450 1451 1447 1447 1451 1453 1453 1455 1456 1451 1447 1446 1446 1446 1444 1442 1441 1443 1446 1447 1447 1446 1438 1429 1424 1418 1413 1415 1419 1419 1419 1421 1421 1420 1420 1419 1418 1416 1415
1279 1285 1288 1289 1298 1307 1310 1314 1318 1320 1325 1327 1330 1335 1338 1343 1348 1350 1358 1366 1365 1365 1368 1370 1377 1383 1386 1388 1388 1389 1393 1397 1400 1403 1406 1409 1410 1413 1418 1421 1424 1429 1434 1438 1440 1442 1444 1445 1446 1448 1449 1446 1447 1449 1450 1454 1458 1452 1440 1434 1436 1437 1438 1438 1436 1435 1435 1437 1439 1438 1434 1426 1421 1421 1418 1411 1412 1418 1418 1418 1420 1420 1419 1419 1417 1414 1413 1411